TA2EE-10 Weather Reports


time (UTC)temp
C
wind
direction
speed
KPH
gust
KPH
rain 1hr
cm
rain 24hr
cm
rain mn
cm
humidity
%
barometer
mb
20260506235830 23 0 0.0 0.0 0.00 0.00 0.00 31 917.0
20260506232308 23 0 0.0 0.0 0.00 0.00 0.00 30 916.0
20260506224746 24 0 0.0 0.0 0.00 0.00 0.00 30 916.0
20260506221224 23 0 0.0 0.0 0.00 0.00 0.00 31 916.0
20260506213701 24 0 0.0 0.0 0.00 0.00 0.00 31 916.0
20260506210140 25 0 0.0 0.0 0.00 0.00 0.00 32 916.0
20260506202617 25 0 0.0 0.0 0.00 0.00 0.00 34 916.0
20260506195055 25 0 0.0 0.0 0.00 0.00 0.00 32 916.0
20260506191533 25 0 0.0 0.0 0.00 0.00 0.00 28 916.0
20260506184011 25 0 0.0 0.0 0.00 0.00 0.00 29 916.0
20260506180449 26 0 0.0 0.0 0.00 0.00 0.00 29 915.0
20260506180342 26 0 0.0 0.0 0.00 0.00 0.00 28 915.0
20260506172819 26 0 0.0 0.0 0.00 0.00 0.00 27 915.0
20260506165257 27 0 0.0 0.0 0.00 0.00 0.00 26 915.0
20260506161736 26 0 0.0 0.0 0.00 0.00 0.00 26 915.0
20260506154213 25 0 0.0 0.0 0.00 0.00 0.00 26 914.0
20260506150652 26 0 0.0 0.0 0.00 0.00 0.00 26 914.0
20260506143129 27 0 0.0 0.0 0.00 0.00 0.00 26 914.0
20260506135607 26 0 0.0 0.0 0.00 0.00 0.00 27 914.0
20260506132045 26 0 0.0 0.0 0.00 0.00 0.00 28 914.0
20260506124523 27 0 0.0 0.0 0.00 0.00 0.00 25 915.0
20260506121001 26 0 0.0 0.0 0.00 0.00 0.00 27 915.0
20260506113439 25 0 0.0 0.0 0.00 0.00 0.00 28 915.0
20260506105917 25 0 0.0 0.0 0.00 0.00 0.00 28 915.0
20260506102355 27 0 0.0 0.0 0.00 0.00 0.00 26 915.0
20260506094833 28 0 0.0 0.0 0.00 0.00 0.00 25 915.0
20260506091310 26 0 0.0 0.0 0.00 0.00 0.00 28 915.0
20260506083748 27 0 0.0 0.0 0.00 0.00 0.00 26 915.0
20260506080226 27 0 0.0 0.0 0.00 0.00 0.00 27 915.0
20260506072703 27 0 0.0 0.0 0.00 0.00 0.00 27 915.0
20260506061620 22 0 0.0 0.0 0.00 0.00 0.00 35 915.0
20260506050305 15 0 0.0 0.0 0.00 0.00 0.00 48 915.0
20260506042743 15 0 0.0 0.0 0.00 0.00 0.00 47 914.0
20260506035220 16 0 0.0 0.0 0.00 0.00 0.00 47 914.0
20260506031658 16 0 0.0 0.0 0.00 0.00 0.00 48 914.0
20260506024136 16 0 0.0 0.0 0.00 0.00 0.00 48 913.0
20260506020614 16 0 0.0 0.0 0.00 0.00 0.00 49 913.0
20260506013052 16 0 0.0 0.0 0.00 0.00 0.00 49 913.0
20260506005530 16 0 0.0 0.0 0.00 0.00 0.00 48 913.0
20260506002008 16 0 0.0 0.0 0.00 0.00 0.00 48 913.0